Zurück zum Katalog

STARLINK-3306

AktivKommunikationVLEO
NORAD 50163·PAYLOAD·🇺🇸 United States

Gestartet Dec 18, 2021 von Vandenberg Space Force Base

Loading…

Nächste Überflüge (nächste 24 Stunden)

TLE

AktuellSource: CelesTrak SupGP

Epoche: Sep 14, 2026, 21:47 UTC

1 50163C 21125H   26257.90812500  .00195340  00000+0  81307-3 0  2573
2 50163  53.2101  66.2910 0003287 261.6520 279.9205 15.84897983    12

Verfolge STARLINK-3306 in Echtzeit mit AllMySat

Download on the App Store